Skip Page Navigation
NASA JPL Caltech
NASA Logo - Jet Propulsion Laboratory + View the NASA Portal
+ Center for Near-Earth Object Studies
JPL Home Earth Solar System Stars & Galaxies Technology
JPL Solar System Dynamics
BODIES ORBITS EPHEMERIDES TOOLS PHYSICAL DATA DISCOVERY FAQ SITE MAP
IMPORTANT: The SSD Announcement email list is now available. Major changes are coming in the near future, including possible hostname and/or URL changes. To be notified of such changes, subscribe to this email list.

Please visit this page for more details.


JPL Small-Body Database Browser
Search: [ help ]  
266608 (2008 LT16)
Classification: Main-belt Asteroid          SPK-ID: 2266608
Ephemeris | Orbit Diagram | Orbital Elements | Mission Design | Physical Parameters | Discovery Circumstances | Close-Approach Data ]

[ show orbit diagram ]
Orbital Elements at Epoch 2458600.5 (2019-Apr-27.0) TDB
Reference: JPL 11 (heliocentric ecliptic J2000)
 Element Value Uncertainty (1-sigma)   Units 
e .1236629022972206 1.2886e-07  
a 2.551285537008557 3.3758e-08 au
q 2.235786162913156 3.4383e-07 au
i 8.018910637092747 7.5653e-06 deg
node 252.660130332156 6.6574e-05 deg
peri 278.8551981479321 7.7661e-05 deg
M 338.5925299747568 4.2574e-05 deg
tp 2458689.011534756881
(2019-Jul-24.51153476)
0.00017682 TDB
period 1488.459517864728
4.08
2.9543e-05
8.088e-08
d
yr
n .2418607934439753 4.8004e-09 deg/d
Q 2.866784911103958 3.7933e-08 au
  Orbit Determination Parameters
   # obs. used (total)      237  
   data-arc span      7762 days (21.25 yr)  
   first obs. used      1997-11-23  
   last obs. used      2019-02-23  
   planetary ephem.      DE431  
   SB-pert. ephem.      SB431-N16  
   condition code      0  
   norm. resid. RMS      .57646  
   source      ORB  
   producer      Otto Matic  
   solution date      2019-Jul-14 03:00:57  

Additional Information
 Earth MOID = 1.25822 au 
 Jupiter MOID = 2.17861 au 
 T_jup = 3.416 
[ show covariance matrix ]

Ephemeris | Orbit Diagram | Orbital Elements | Mission Design | Physical Parameters | Discovery Circumstances | Close-Approach Data ]

Physical Parameter Table
Parameter Symbol Value Units Sigma Reference Notes
absolute magnitude H 16.3   n/a MPO423025  

266608 (2008 LT16)          Discovered 2008-Jun-14 by Hug, G. at Eskridge
Reference: 20110218/Numbers.arcLast Updated: 2011-02-22

[ show close-approach data ]
Alternate Designations
 2008 LT16 = 2007 DN79 
Ephemeris | Orbit Diagram | Orbital Elements | Mission Design | Physical Parameters | Discovery Circumstances | Close-Approach Data ]
ABOUT SSD CREDITS/AWARDS PRIVACY/COPYRIGHT GLOSSARY LINKS
FirstGov 2019-Dec-12 14:08 UT
(server date/time)  
NASA Home Page
Site Manager:   Ryan S. Park
Webmaster  Alan B. Chamberlin